Location: Buchberg
(46.9333°N, 15.8500°E)
Time: 09:23:31
(UTC+00:00)

Meteor 1-11 Rocket - Pass Details

Date: 14 July 2020
Orbit: 831 x 915 km, 81.2° (Epoch: 07 August)

Event Time Altitude Azimuth Distance (km) Brightness Sun altitude
Exits shadow 02:04:17 13° 223° (SW) 2,228 5.2 -10.1°
Maximum altitude 02:08:49 40° 289° (WNW) 1,220 4.4 -9.6°
Drops below altitude 10° 02:14:00 10° 358° (N) 2,454 6.8 -9.0°
Sets 02:16:36 0° 6° (N) 3,397 7.8 -8.7°
